This demonstration page uses our WeatherBlox Daily Observations layout. Learn more.

41.55636, -103.73856

Hourly Observations for September 13, 2017

Temp ( °F °C ) Dew Point ( °F °C ) Humidity (%) Winds ( mph kmh ) Pressure ( in mb ) Visibility ( mi km ) Precip ( " mm )
12:53 am 00:53 Clear 65 18.3 49 9.4 56 56 E 7 11 29.71 1006 10 16.0934 0 0
1:53 am 01:53 Clear 59 15 50 10 72 72 NNW 9 15 29.72 1007 10 16.0934 0 0
2:53 am 02:53 Clear 59 15 49 9.4 69 69 W 5 7 29.71 1006 10 16.0934 0 0
3:53 am 03:53 Clear 58 14.4 50 10 75 75 NNW 5 7 29.72 1007 10 16.0934 0 0
4:53 am 04:53 Clear 54 12.2 49 9.4 83 83 undefined N/A 29.74 1007 10 16.0934 0 0
5:53 am 05:53 Clear 55 12.8 49 9.4 80 80 NW 8 13 29.74 1007 10 16.0934 0 0
6:53 am 06:53 Sunny 54 12.2 48 8.9 80 80 NNW 5 7 29.76 1008 10 16.0934 0 0
7:53 am 07:53 Sunny 59 15 49 9.4 69 69 NW 9 15 29.77 1008 10 16.0934 0 0
8:53 am 08:53 Sunny 67 19.4 50 10 55 55 WNW 10 17 29.74 1007 10 16.0934 0 0
9:53 am 09:53 Sunny 74 23.3 50 10 43 43 WNW 8 13 29.73 1007 10 16.0934 0 0
10:53 am 10:53 Sunny 81 27.2 47 8.3 30 30 WNW 10 17 29.72 1006 10 16.0934 0 0
11:53 am 11:53 Sunny 87 30.6 46 7.8 24 24 NW 10 17 29.7 1006 10 16.0934 0 0
12:53 pm 12:53 Sunny 89 31.7 45 7.2 22 22 NW 7 11 29.67 1005 10 16.0934 0 0
1:53 pm 13:53 Sunny 92 33.3 43 6.1 18 18 NNW 7 11 29.65 1004 10 16.0934 0 0
2:53 pm 14:53 Sunny 94 34.4 40 4.4 15 15 VRB 7 11 29.62 1003 10 16.0934 0 0
3:53 pm 15:53 Sunny 94 34.4 41 5 16 16 SSW 8 13 29.6 1002 10 16.0934 0 0
4:53 pm 16:53 Sunny 91 32.8 40 4.4 17 17 NNW 10 17 29.61 1003 10 16.0934 0 0
5:14 pm 17:14 Sunny 90 32 43 6 20 20 NNE 20 31 29.38 995 10 16.0934 0 0
5:53 pm 17:53 Sunny 85 29.4 51 10.6 31 31 ENE 10 17 29.63 1003 10 16.0934 0 0
6:53 pm 18:53 Sunny 78 25.6 50 10 37 37 NE 12 19 29.65 1004 10 16.0934 0 0
7:53 pm 19:53 Clear 77 25 49 9.4 37 37 E 9 15 29.65 1004 10 16.0934 0 0
8:53 pm 20:53 Partly Cloudy 74 23.3 52 11.1 46 46 NW 8 13 29.71 1006 10 16.0934 0 0
9:53 pm 21:53 Clear 71 21.7 51 10.6 49 49 NNE 12 19 29.66 1004 10 16.0934 0 0
10:53 pm 22:53 Clear 67 19.4 51 10.6 57 57 NW 5 7 29.65 1004 10 16.0934 0 0
11:53 pm 23:53 Clear 63 17.2 52 11.1 68 68 Calm 29.66 1004 10 16.0934 0 0

Powered by AerisWeather